Tracking 25378 objects as of 22-Jan-2022
HD Live streaming from Space Station
objects crossing your sky now

STARLINK-2236

Track STARLINK-2236 now!
10-day predictions
STARLINK-2236 is classified as:


NORAD ID: 48582
Int'l Code: 2021-041AF
Perigee: 553.2 km
Apogee: 555.6 km
Inclination: 53.1 °
Period: 95.6 minutes
Semi major axis: 6925 km
RCS: Unknown
Launch date: May 15, 2021
Source: United States (US)
Launch site: AIR FORCE EASTERN TEST RANGE (AFETR)
aabbcc
Your satellite tracking list
Your tracking list is empty




NASA's NSSDC Master Catalog

Two Line Element Set (TLE):
1 48582U 21041AF  22021.58334491 -.00009336  00000-0 -60890-3 0  9998
2 48582  53.0538  26.7653 0001762  57.4167 156.7640 15.06383492  3607
Source of the keplerian elements: AFSPC